Weather History for Norfolk, NE

Change the Weather History Date:

Saturday, August 24, 2013

  Actual Average Record
Temperature  
Mean Temperature 83 °F 72 °F  
Max Temperature 91 °F 83 °F 104 °F (1936)
Min Temperature 74 °F 60 °F 36 °F (1928)
Degree Days  
Heating Degree Days 0 1  
Month to date heating degree days 3 1  
Since 1 June heating degree days 58 35  
Since 1 July heating degree days 16 5  
Cooling Degree Days 18 7  
Month to date cooling degree days 175 210  
Year to date cooling degree days 713 771  
Since 1 June cooling degree days 649 710  
Growing Degree Days 32 (Base 50)    
Moisture  
Dew Point 71 °F    
Average Humidity 71    
Maximum Humidity 82    
Minimum Humidity 59    
Precipitation  
Precipitation 0.01 in 0.09 in 0.92 in (2009)
Month to date precipitation 3.58 2.59  
Year to date precipitation 18.41 19.87  
Snow  
Snow 0.00 in 0.00 in - ()
Month to date snowfall 0.0 0.0  
Since 1 July snowfall 0.0 0.0  
Snow Depth 0.00 in    
Sea Level Pressure  
Sea Level Pressure 29.95 in    
Wind  
Wind Speed 16 mph (SSE)    
Max Wind Speed 24 mph    
Max Gust Speed 37 mph    
Visibility 10 miles    
Events Rain , Thunderstorm    
T = Trace of Precipitation, MM = Missing Value Source: NWS Daily Summary

Daily Weather History Graph

Daily Weather History Graph

Search for Another Location

Airport:

Trip Planner

Search our weather history database for the weather conditions in past years. The results will help you decide how hot, cold, wet, or windy it might be!

Date:

Astronomy

Aug. 24, 2013 Rise Set
Actual Time 6:47 AM CDT 8:15 PM CDT
Civil Twilight 6:18 AM CDT 8:45 PM CDT
Nautical Twilight 5:42 AM CDT 9:20 PM CDT
Astronomical Twilight 5:05 AM CDT 9:57 PM CDT
Moon 10:05 PM CDT (8/24) 10:53 AM CDT (8/24)
Length of Visible Light 14h 27m
Length of Day
13h 28m
Waning Gibbous, 84% of the Moon is Illuminated
Aug 24
Waning Gibbous
Aug 28
Last Quarter
Sep 5
New
Sep 12
First Quarter
Sep 19
Full

Hourly Weather History & Observations

Time (CDT) Temp. Heat Index Dew Point Humidity Pressure Visibility Wind Dir Wind Speed Gust Speed Precip Events Conditions
12:56 AM 77.0 °F - 68.0 °F 74% 29.94 in 10.0 mi SE 15.0 mph - N/A   Overcast
1:56 AM 75.9 °F - 68.0 °F 76% 29.93 in 10.0 mi SSE 13.8 mph - N/A   Partly Cloudy
2:56 AM 77.0 °F - 69.1 °F 76% 29.92 in 10.0 mi South 13.8 mph - N/A   Scattered Clouds
3:56 AM 79.0 °F - 69.1 °F 72% 29.92 in 10.0 mi South 17.3 mph 28.8 mph N/A   Overcast
4:56 AM 77.0 °F - 69.1 °F 76% 29.93 in 10.0 mi South 19.6 mph 28.8 mph N/A   Overcast
5:56 AM 75.9 °F - 69.1 °F 79% 29.92 in 10.0 mi South 19.6 mph 29.9 mph N/A   Scattered Clouds
6:56 AM 75.0 °F - 69.1 °F 82% 29.94 in 10.0 mi South 13.8 mph 23.0 mph N/A   Mostly Cloudy
7:08 AM 75.2 °F - 69.8 °F 83% 30.01 in 10.0 mi Variable 4.6 mph - N/A Thunderstorm Overcast
7:53 AM 73.4 °F - 69.8 °F 88% 30.02 in 10.0 mi SE 9.2 mph - 0.01 in Rain , Thunderstorm Light Rain
7:54 AM 73.9 °F - 70.0 °F 87% 29.98 in 10.0 mi SE 10.4 mph - 0.01 in Rain , Thunderstorm Light Rain
8:14 AM 73.4 °F - 69.8 °F 88% 30.02 in 9.0 mi SE 12.7 mph - 0.00 in Rain Light Rain
8:56 AM 73.9 °F - 70.0 °F 87% 29.99 in 8.0 mi SE 12.7 mph - 0.00 in   Overcast
9:56 AM 75.9 °F - 70.0 °F 82% 29.98 in 10.0 mi SE 16.1 mph - N/A   Clear
10:56 AM 81.0 °F 85.2 °F 72.0 °F 74% 29.96 in 10.0 mi SSE 19.6 mph 26.5 mph N/A   Clear
11:56 AM 84.0 °F 89.6 °F 72.0 °F 67% 29.96 in 10.0 mi South 23.0 mph 27.6 mph N/A   Clear
12:56 PM 86.0 °F 93.0 °F 73.0 °F 65% 29.95 in 10.0 mi South 18.4 mph - N/A   Clear
1:56 PM 88.0 °F 95.6 °F 73.0 °F 61% 29.94 in 10.0 mi South 18.4 mph 27.6 mph N/A   Clear
2:56 PM 89.1 °F 98.0 °F 73.9 °F 61% 29.93 in 10.0 mi South 21.9 mph - N/A   Clear
3:56 PM 90.0 °F 99.0 °F 73.9 °F 59% 29.92 in 10.0 mi South 15.0 mph 25.3 mph N/A   Clear
4:56 PM 90.0 °F 99.0 °F 73.9 °F 59% 29.91 in 10.0 mi South 18.4 mph 26.5 mph N/A   Clear
5:56 PM 89.1 °F 97.0 °F 73.0 °F 59% 29.92 in 10.0 mi South 17.3 mph 25.3 mph N/A   Clear
6:56 PM 87.1 °F 95.4 °F 73.9 °F 65% 29.92 in 10.0 mi SSE 15.0 mph - N/A   Clear
7:56 PM 84.0 °F 90.2 °F 73.0 °F 69% 29.92 in 10.0 mi SSE 11.5 mph - N/A   Clear
8:56 PM 82.0 °F 86.3 °F 71.1 °F 69% 29.93 in 10.0 mi SSE 15.0 mph - N/A   Clear
9:56 PM 82.0 °F 86.3 °F 71.1 °F 69% 29.95 in 10.0 mi South 16.1 mph - N/A   Clear
10:56 PM 80.1 °F 83.2 °F 70.0 °F 71% 29.96 in 10.0 mi South 15.0 mph - N/A   Clear
11:56 PM 79.0 °F - 70.0 °F 74% 29.96 in 10.0 mi South 15.0 mph - N/A   Clear